RH
29 29 26 27 29 31 32 36 42 42 40 43 48 50 47 43 42 40 38 36 33 33 35 41 48 50 49 50 51 52 52 51 50 51 51 52 53 52 52 52 51 49 48 45 42 42 43 42 38 34 31 28 25 23 23 23 23 23 23 23 24 25 26 26 26 24 23 23 23 24 24 22 22 21 20 17 16 18 18 14 12 15 13 13 12
28 27 24 23 24 26 27 31 36 36 36 38 42 46 45 44 44 42 40 37 35 33 33 38 47 51 50 50 52 53 53 52 49 47 48 48 50 51 51 53 53 52 50 47 43 41 42 41 38 37 35 33 29 26 24 24 23 22 22 22 22 23 24 24 23 23 23 23 24 24 22 21 21 20 18 16 16 18 18 14 12 15 13 13 12
28 26 23 23 22 22 23 27 30 30 33 34 36 39 41 43 45 42 40 38 36 35 34 37 46 51 51 52 54 54 53 52 49 46 46 46 47 49 50 51 52 50 48 46 45 44 43 39 35 34 34 34 33 29 26 24 24 23 22 22 22 23 22 22 22 22 23 23 24 23 21 20 20 19 17 15 16 18 17 14 13 14 13 12 12
28 26 25 25 24 22 22 23 26 27 29 31 31 32 34 38 41 39 38 37 35 37 37 38 45 50 51 53 54 54 54 52 49 46 46 45 45 47 48 50 49 47 44 44 44 43 43 41 37 35 33 31 30 30 28 27 26 25 25 24 23 23 23 23 23 23 22 23 23 21 19 18 19 18 17 15 15 18 17 13 13 14 14 13 12
28 26 26 28 27 27 25 23 24 24 24 26 26 26 28 31 35 38 36 34 34 34 37 38 42 48 49 51 52 53 54 53 50 46 45 45 45 45 47 48 47 45 43 43 44 43 43 42 42 42 38 31 27 28 28 29 30 30 29 27 25 24 24 24 23 23 22 22 21 19 18 17 18 18 18 15 14 17 17 13 13 14 14 13 13
28 27 27 28 29 30 30 27 25 23 23 24 24 24 26 25 30 36 35 35 35 33 37 38 38 44 45 47 50 50 52 53 51 46 44 46 46 45 45 46 47 46 44 42 43 43 43 43 43 44 42 36 29 27 28 28 30 32 32 29 27 25 24 24 23 22 21 20 19 17 16 16 18 19 18 15 14 17 16 13 13 14 14 14 15
27 27 28 29 30 31 31 30 28 25 24 24 25 27 28 26 29 34 35 37 38 35 38 38 38 42 42 43 48 50 51 51 50 48 45 44 46 45 45 45 45 44 43 42 41 40 40 41 42 42 42 39 32 28 29 29 29 31 32 31 29 26 24 23 22 20 18 18 17 15 16 16 18 19 19 15 14 17 17 14 13 14 14 14 15
27 27 28 30 31 32 32 31 30 28 27 24 24 27 27 26 27 29 33 37 38 36 37 37 38 41 39 40 44 47 51 51 49 49 46 44 45 45 45 45 44 43 42 41 42 40 39 39 40 39 39 39 35 30 28 29 30 30 31 31 30 27 24 22 20 18 16 15 15 15 15 16 18 20 19 16 14 17 18 15 13 13 14 14 15
28 28 28 30 31 32 32 32 32 30 28 25 24 26 25 24 23 23 27 34 38 37 35 36 36 38 39 39 40 43 48 50 48 48 47 44 45 45 45 43 43 44 42 41 42 41 39 39 39 39 39 39 38 35 29 28 29 30 29 29 29 28 25 21 18 16 14 14 14 14 15 16 18 20 20 16 14 16 18 16 14 13 14 14 15
28 28 28 29 31 32 32 33 34 32 31 27 24 23 22 21 22 21 22 28 37 38 34 35 35 36 38 36 36 41 45 47 47 47 47 45 44 44 45 44 43 43 43 42 42 41 40 39 38 39 40 39 39 38 35 33 33 32 31 29 27 27 25 22 18 15 14 13 14 14 16 16 18 21 21 17 14 16 18 16 14 13 14 14 15
28 28 29 30 31 32 32 33 36 35 34 32 26 22 20 20 21 23 23 25 31 35 33 34 34 33 33 31 33 39 43 45 45 45 45 44 43 43 44 44 42 43 44 43 41 42 41 40 39 39 39 39 39 40 39 38 38 37 37 35 31 27 26 23 18 15 14 13 14 15 16 17 18 21 21 17 14 16 18 16 14 13 14 15 16
29 29 29 30 31 32 32 34 36 37 37 36 30 25 20 20 21 22 24 25 28 32 32 31 31 28 27 27 29 34 39 41 43 43 43 43 43 43 43 43 42 43 43 43 41 40 41 40 39 39 39 38 39 39 39 39 40 40 41 40 37 31 27 26 22 17 14 14 15 15 17 17 18 21 21 17 14 16 17 16 14 13 14 16 17
31 32 31 31 33 34 34 35 37 38 39 39 36 32 26 22 21 20 22 23 27 31 32 31 31 29 28 26 26 29 34 37 40 41 42 42 43 42 43 44 44 44 44 44 42 41 40 39 39 38 38 38 38 39 39 39 40 42 42 42 41 35 29 27 25 21 17 15 15 16 17 18 18 21 21 17 14 16 17 15 14 13 15 16 18
34 35 35 35 35 37 38 39 40 41 41 42 41 39 35 29 24 21 20 20 25 31 31 30 33 32 32 31 30 31 33 33 35 37 40 41 41 41 41 43 45 45 45 44 42 42 42 41 40 38 37 38 38 39 39 39 40 41 42 42 41 39 32 27 27 26 22 18 16 16 17 18 18 20 21 17 14 16 16 15 14 14 15 17 19
35 36 37 37 37 38 39 40 43 44 44 44 45 44 41 36 31 26 23 21 25 32 29 28 35 36 35 34 35 39 39 38 34 33 36 37 40 42 41 42 45 46 44 43 42 43 43 42 41 39 38 39 40 40 40 40 40 40 42 42 42 41 37 31 28 27 27 24 20 17 18 19 19 20 20 17 14 16 16 15 14 14 16 17 19
36 36 37 37 36 38 39 39 42 46 47 47 49 49 45 42 38 33 30 28 30 33 28 27 33 37 39 37 35 37 37 39 39 37 38 38 39 43 41 40 44 47 46 44 43 42 43 44 42 41 41 40 40 40 41 40 40 40 41 42 42 42 41 38 33 30 28 28 25 21 19 19 19 20 20 16 14 16 16 15 14 15 16 18 19
37 38 38 38 37 38 39 39 41 45 50 51 51 51 48 46 45 40 36 33 35 38 32 28 30 33 39 39 37 39 36 35 40 41 41 40 40 42 42 40 41 45 47 47 46 43 42 44 44 43 42 41 39 39 40 40 40 39 38 40 42 42 42 41 39 36 33 30 28 25 22 20 19 20 19 16 15 16 16 15 15 15 16 18 19
38 38 39 39 39 39 38 38 40 44 50 52 52 52 50 49 49 47 43 36 35 41 38 33 31 31 34 36 39 43 42 39 38 37 39 40 40 41 41 41 39 40 43 46 47 46 45 45 44 44 43 42 40 37 38 39 39 40 39 38 40 42 41 41 41 41 39 35 31 28 25 22 20 20 19 17 15 16 16 15 15 15 16 18 18
40 38 39 41 41 41 38 36 39 45 49 51 52 52 52 52 52 52 50 44 39 43 44 39 36 34 32 34 36 38 40 41 39 36 40 42 42 41 39 37 36 38 41 42 44 47 48 46 45 44 42 41 40 37 35 37 38 39 40 39 39 40 40 41 42 42 43 40 35 31 28 25 22 21 21 18 15 16 16 15 15 15 16 17 18
42 40 40 43 43 41 37 34 38 47 50 52 52 53 53 54 55 53 52 51 46 46 49 45 42 41 38 35 35 36 38 40 40 39 40 41 42 43 41 39 39 36 35 38 42 44 46 46 45 46 45 43 43 40 35 36 38 38 39 39 40 40 39 40 40 41 42 42 39 35 31 28 24 24 24 21 17 16 17 16 15 15 16 17 18
45 44 41 42 42 39 36 35 39 46 51 53 54 55 54 54 55 54 53 52 49 49 51 50 47 46 44 41 39 38 39 40 40 39 38 37 38 41 42 43 45 41 34 35 38 40 44 45 45 47 47 46 45 42 37 37 39 40 39 38 40 40 39 39 39 39 40 40 39 38 34 32 28 27 28 25 21 18 17 17 15 15 15 16 17
48 46 44 42 41 39 40 41 43 46 50 53 55 56 56 54 53 54 55 53 51 49 50 51 50 47 46 47 45 43 41 41 41 40 38 38 38 40 41 39 42 43 39 36 36 38 42 44 44 47 48 49 48 45 40 38 40 42 41 40 42 43 42 41 40 38 38 38 38 38 38 37 34 33 33 31 28 22 19 18 16 15 15 16 16
52 48 47 45 43 42 43 44 45 47 48 51 54 55 56 55 52 52 54 54 53 51 49 50 52 51 48 47 47 46 44 42 43 43 41 40 39 39 40 37 36 39 40 38 36 37 40 41 41 43 46 49 49 47 44 41 41 42 42 43 44 46 47 47 46 43 41 39 38 37 38 39 39 39 37 35 34 29 23 20 18 16 15 15 15
60 52 50 47 45 43 43 44 45 46 47 48 51 52 54 56 54 51 51 53 53 53 52 51 52 53 51 50 49 48 47 45 45 44 41 41 41 40 42 41 39 38 39 40 38 35 35 34 34 36 40 44 45 44 44 42 42 42 43 44 46 48 49 50 50 49 46 44 42 40 38 38 39 40 40 39 38 35 29 24 21 19 15 14 15
65 58 54 50 47 45 44 45 45 44 44 45 46 49 53 56 56 53 51 52 53 54 53 52 52 53 52 53 51 49 48 48 47 45 43 42 41 40 41 43 43 41 39 41 41 39 35 33 32 33 37 40 39 38 39 40 41 42 43 45 46 47 47 48 49 49 48 48 47 46 43 40 39 39 40 41 40 38 35 30 25 22 19 16 16
64 61 59 56 53 50 47 46 47 45 44 43 44 46 49 53 56 55 54 54 54 53 53 52 51 50 51 52 52 50 49 50 49 47 44 44 43 40 39 40 40 41 40 40 42 42 39 39 38 35 35 36 35 34 36 39 40 41 44 45 45 45 44 44 46 49 49 49 49 49 48 45 42 39 40 42 42 41 39 36 31 26 23 21 19
62 62 61 59 59 60 56 51 49 49 47 44 43 44 45 50 54 53 55 59 56 52 52 53 52 50 48 49 51 51 50 49 49 46 43 43 44 43 41 39 36 36 40 41 40 41 40 40 40 38 37 35 34 34 35 37 39 40 43 45 44 44 43 42 44 48 50 51 50 50 50 50 47 43 40 41 43 43 42 42 38 33 28 27 25
61 61 59 58 61 67 66 61 55 51 49 45 42 43 46 50 52 52 53 57 56 53 53 53 52 52 50 48 49 51 51 49 48 46 43 43 46 45 43 42 38 35 38 42 41 41 42 41 40 39 39 37 34 35 36 36 38 39 41 44 44 44 44 43 43 45 48 50 51 50 50 51 51 48 43 42 43 44 44 45 44 40 35 31 29
61 59 58 56 58 62 66 70 68 58 51 49 45 44 47 51 54 54 54 54 53 52 53 54 53 53 52 50 49 50 51 49 48 47 44 43 46 46 43 43 42 37 37 40 41 41 41 41 41 39 39 39 36 34 35 36 38 39 41 43 45 45 46 45 44 44 45 47 49 50 50 51 53 52 49 45 44 46 46 45 46 45 42 36 33
64 58 55 53 53 54 57 69 78 69 57 53 50 48 48 50 54 55 53 52 52 52 53 55 55 54 53 53 51 50 50 50 49 48 46 46 46 46 44 45 44 40 38 38 39 39 39 39 41 42 39 38 37 34 34 37 38 39 41 43 45 46 47 47 47 46 46 46 47 49 50 51 52 53 52 49 46 46 47 47 47 47 47 43 37
68 63 57 52 50 49 50 61 77 79 67 58 55 53 51 50 52 54 54 54 55 54 55 55 55 55 56 56 54 52 53 52 50 49 48 48 47 47 47 46 44 41 39 38 37 38 39 39 41 42 40 39 37 34 33 36 38 39 40 42 43 46 47 48 49 48 47 47 47 47 48 50 51 52 53 53 50 47 47 48 49 50 50 47 42
67 68 65 59 54 50 48 53 68 79 76 67 59 56 55 53 51 51 54 58 59 57 56 55 56 58 59 59 58 56 55 55 52 50 50 50 49 50 50 48 46 44 41 39 37 37 40 42 43 42 42 44 42 36 34 36 37 38 38 40 41 44 46 48 49 50 49 48 48 48 47 47 49 51 51 52 52 50 48 49 51 51 50 49 46
60 64 66 66 63 58 53 51 58 69 76 74 68 63 60 58 55 52 52 56 59 58 57 56 56 58 60 60 60 59 59 58 55 52 52 52 52 53 54 52 49 47 45 44 42 39 39 41 44 44 42 44 45 42 42 40 37 37 38 38 39 41 43 45 48 50 51 51 50 50 49 47 48 50 51 51 51 51 50 48 50 51 51 50 49
53 54 59 66 67 64 60 58 57 62 69 74 75 73 67 62 58 55 52 52 54 56 56 56 55 57 58 59 59 60 60 60 58 56 54 54 54 54 56 57 56 54 52 51 49 47 43 42 45 47 46 45 45 46 48 47 42 39 39 39 39 39 40 42 45 47 49 51 52 52 52 50 48 49 51 51 52 52 51 50 48 48 48 49 49
52 50 55 63 66 64 62 62 62 62 64 68 72 75 73 66 60 56 50 47 48 51 54 56 56 55 56 56 57 58 60 60 60 60 58 57 57 56 56 58 60 60 59 58 57 55 52 49 48 49 49 49 49 49 49 51 50 47 43 42 41 40 40 41 42 44 46 49 52 53 54 54 52 50 50 52 53 52 52 51 49 47 46 47 48
55 57 59 62 64 63 62 63 65 66 66 67 68 70 71 69 65 61 53 46 43 45 49 53 55 56 56 55 56 57 59 59 61 62 61 60 60 59 58 59 60 62 62 62 62 61 60 58 55 53 52 53 54 53 52 54 58 56 52 49 47 45 43 41 41 42 43 45 49 53 57 57 55 54 52 52 53 54 53 51 50 48 47 46 46
61 64 64 63 65 66 65 64 66 67 67 68 68 69 70 70 70 67 60 51 44 42 44 48 52 55 56 55 55 56 58 59 60 61 61 62 61 60 61 61 61 62 62 63 63 63 63 62 61 61 60 60 61 59 57 57 59 61 59 56 54 52 49 45 44 43 42 43 46 50 55 58 58 57 56 54 54 55 55 53 50 48 48 47 46
66 68 66 64 66 68 68 66 66 65 64 65 68 70 72 73 73 71 65 57 50 46 45 46 49 52 54 55 54 55 56 58 58 59 61 62 62 60 61 61 61 62 62 64 65 65 64 62 63 64 64 65 66 66 65 62 60 61 60 58 57 57 55 51 47 45 44 42 44 47 51 54 57 58 58 57 56 55 55 54 51 48 47 48 47
63 65 65 63 64 68 70 70 69 67 66 68 70 73 75 75 74 74 71 65 59 55 53 51 48 48 51 54 54 56 58 58 58 59 59 60 61 61 61 61 61 62 62 63 64 64 65 63 63 64 65 66 66 66 68 68 65 63 61 58 56 57 58 55 52 49 47 44 43 45 48 51 55 58 59 59 58 58 56 55 52 48 46 47 49
54 56 58 57 58 62 67 69 69 68 70 73 75 78 78 77 76 75 74 71 66 63 63 62 57 52 50 51 53 55 58 58 59 60 60 59 60 61 62 62 60 61 61 62 63 64 64 64 65 65 65 66 67 67 67 68 66 65 64 61 58 56 56 57 56 54 53 48 44 44 46 49 52 55 58 60 59 58 57 56 54 50 47 46 48
50 50 51 51 53 57 61 63 64 65 69 73 75 78 79 79 79 77 76 74 68 64 65 68 67 63 59 56 55 54 55 57 58 59 58 58 57 57 59 62 62 62 61 61 63 64 63 63 65 66 66 67 67 67 68 67 66 67 67 65 64 62 58 56 56 56 57 54 50 46 45 46 48 50 53 56 57 58 57 55 54 52 48 45 44
48 48 48 49 52 56 59 60 61 62 65 67 69 71 72 73 75 76 76 72 65 60 61 65 68 68 66 64 61 57 56 56 58 59 58 57 57 56 57 60 62 62 61 61 62 62 62 62 64 66 66 65 65 66 68 68 66 67 69 67 67 69 68 63 57 55 57 58 56 52 49 47 46 47 50 51 54 57 58 56 54 52 50 45 42
45 46 48 50 52 55 58 60 60 61 63 64 66 67 68 67 66 68 68 64 59 57 58 59 62 66 68 68 67 64 62 60 61 61 61 59 59 59 57 58 58 59 60 62 62 63 64 64 63 63 63 63 62 63 65 66 64 64 68 69 68 70 73 71 64 57 55 58 59 57 55 52 47 46 48 49 51 53 55 55 53 51 50 48 45
41 41 43 46 48 51 55 57 59 59 61 65 67 68 68 66 64 62 61 58 56 55 55 55 56 59 63 66 68 68 67 65 65 66 66 65 64 64 61 59 58 57 57 58 60 62 64 64 63 63 63 63 63 63 63 63 62 62 66 67 66 68 71 72 69 65 61 59 59 58 58 56 52 48 47 48 49 50 49 52 54 53 51 50 49
42 41 41 40 41 43 45 48 51 53 56 60 65 66 66 65 63 62 60 58 56 53 51 51 51 53 55 58 61 64 65 65 66 67 68 68 67 67 66 64 62 60 58 58 58 59 61 64 65 64 63 62 63 64 63 63 63 65 66 64 63 67 71 69 67 68 69 66 60 58 58 58 56 53 48 47 49 50 48 49 52 54 53 51 50
46 45 44 42 42 41 41 40 42 43 45 48 52 56 58 58 56 55 53 52 51 50 49 48 48 48 48 50 52 55 58 60 63 65 67 69 70 71 71 70 68 65 62 61 60 60 60 62 64 64 63 64 65 65 63 63 63 64 65 65 62 64 66 65 63 67 72 71 65 61 59 57 58 57 52 49 50 51 50 49 50 52 54 53 52
47 46 45 44 45 45 43 41 39 38 38 39 40 42 44 45 45 44 43 42 41 42 43 44 46 46 46 46 48 49 51 54 57 60 63 66 71 74 76 76 74 72 69 66 64 62 61 63 65 65 64 64 66 67 66 66 66 65 65 65 65 65 66 66 68 70 74 76 73 68 63 58 58 59 56 55 56 54 51 51 51 51 53 54 54
45 44 42 41 42 43 43 43 42 38 34 33 34 34 34 35 36 35 35 35 34 33 33 35 37 37 38 40 41 43 46 48 51 55 59 64 68 71 74 76 76 76 74 71 69 67 65 65 66 67 67 65 65 66 66 67 68 68 67 66 66 69 69 69 70 73 77 80 79 76 71 64 61 62 60 59 61 59 54 52 52 53 53 53 54
43 42 41 40 40 40 39 40 42 41 35 31 30 31 31 31 31 31 30 30 31 31 30 30 30 30 29 30 31 32 34 37 40 44 51 60 65 67 67 68 70 72 73 73 73 70 69 70 70 70 70 69 68 68 69 69 68 67 69 68 67 70 72 71 70 70 74 79 80 78 75 69 65 65 65 63 63 64 61 56 52 53 55 55 55
42 41 41 41 42 42 41 41 42 40 35 30 27 28 29 29 30 30 30 31 31 32 32 31 30 29 29 27 27 27 27 28 30 33 38 48 55 58 59 59 61 63 65 69 71 70 69 70 71 73 74 74 74 74 73 72 71 70 71 71 68 71 74 73 69 68 71 77 79 76 75 73 70 69 70 69 69 68 67 63 58 55 56 57 57
39 39 40 40 41 41 41 41 41 37 32 30 30 29 29 29 30 31 32 34 33 33 34 34 33 31 29 26 25 25 25 26 27 29 31 37 43 48 51 54 56 56 56 59 61 65 69 69 68 70 72 73 74 74 72 72 72 72 74 74 73 74 74 71 69 69 71 74 74 73 73 74 75 76 75 76 76 73 70 69 65 59 56 57 58